Lapse_Rate
6.0 6.5 6.5 6.5 6.5 6.5 6.5 6.5 6.5 6.5 6.5 6.5 6.5 6.5 6.5 6.1 5.6 5.6 4.6 3.9 3.6 3.4 2.2 1.7 1.5 0.9 0.0 -0.8 -0.8 -1.0 -1.2 -1.8 -2.1 -2.7 -2.8 -3.0 -3.7 -3.9 -4.3 -3.8 -3.7 -4.0 -3.8 -3.6
6.5 6.5 6.5 6.5 6.5 6.5 6.5 6.5 6.5 6.5 6.5 6.5 6.5 6.5 6.5 6.5 6.0 4.7 4.1 4.3 4.4 3.7 2.9 2.1 0.9 0.6 0.3 -0.6 -0.5 -0.7 -0.4 -0.8 -1.4 -1.9 -2.5 -2.6 -2.9 -3.2 -3.3 -3.1 -3.2 -3.4 -3.5 -3.5
6.5 6.5 6.5 6.5 6.5 6.5 6.5 6.5 6.5 6.5 6.5 6.5 6.5 6.5 6.5 6.5 5.8 4.4 4.5 2.9 3.5 3.3 3.1 2.6 1.4 1.1 -0.2 -0.1 -1.4 -0.4 -0.6 -0.8 -1.4 -1.8 -1.7 -1.9 -1.9 -2.0 -1.7 -2.2 -2.6 -3.2 -3.1 -3.0
6.5 6.5 6.5 6.5 6.5 6.5 6.5 6.5 6.5 6.5 6.5 6.5 6.5 6.5 6.5 6.5 6.5 6.5 3.7 1.3 3.2 3.3 3.3 2.5 1.5 0.4 0.3 -0.1 0.4 0.0 -0.4 -0.6 -0.9 -1.3 -1.6 -1.7 -1.2 -0.9 -2.1 -2.5 -2.2 -2.4 -2.6 -2.5
6.5 6.5 6.5 6.5 6.5 6.5 6.5 6.5 6.5 6.5 6.5 6.5 6.5 6.5 6.5 6.5 6.5 6.5 6.7 2.6 2.0 1.8 2.2 1.6 1.0 0.1 -1.0 -1.4 -1.3 -0.8 -0.0 0.2 -0.6 -0.9 -1.2 -1.8 -1.8 -2.1 -2.3 -2.6 -2.6 -2.6 -2.3 -2.2
6.5 6.4 6.5 6.5 6.5 6.5 6.5 6.5 6.5 6.5 6.5 6.5 6.5 6.5 6.5 6.5 6.5 6.5 5.1 3.6 3.1 1.9 2.2 1.3 0.6 -0.9 -2.3 -5.0 -3.6 -2.1 -2.1 -1.2 -2.0 -1.4 -1.2 -1.2 -1.6 -2.0 -2.2 -2.3 -2.4 -2.3 -1.9 -1.7
6.5 6.5 6.5 6.6 6.5 6.5 6.5 6.5 6.5 6.5 6.5 6.5 6.5 6.5 6.5 6.5 6.5 6.5 6.5 5.4 2.4 1.0 2.3 0.9 -0.2 -0.5 -1.9 -2.9 -3.8 -4.9 -3.2 -3.3 -5.9 -4.7 -1.8 -2.4 -1.5 -1.9 -1.9 -2.1 -2.1 -2.2 -1.6 -1.1
6.5 6.5 6.5 6.5 6.5 6.5 6.5 6.5 6.5 6.5 6.5 6.5 6.5 6.5 6.5 6.5 4.9 4.4 3.9 2.7 2.8 1.4 1.2 1.1 0.7 0.3 -0.6 -2.1 -3.8 -5.8 -5.3 -5.2 -4.5 -6.7 -4.4 -2.2 -1.5 -1.6 -1.5 -1.5 -1.6 -1.7 -1.6 -1.5
6.5 6.5 6.5 6.5 6.5 6.5 6.5 6.5 6.5 6.5 6.5 6.5 6.5 6.5 6.5 6.5 6.5 6.1 5.2 5.0 4.3 4.2 3.2 2.3 1.0 0.6 -0.9 -2.7 -3.6 -3.7 -4.5 -7.0 -7.9 -5.8 -7.9 -4.8 -2.5 -1.7 -1.4 -1.4 -1.3 -1.1 -1.0 -0.1
6.5 6.5 6.5 6.5 6.5 6.5 6.5 6.5 6.5 6.5 6.5 6.5 6.5 6.5 6.5 6.5 6.5 6.5 6.5 4.7 3.1 3.5 3.5 2.9 2.1 0.9 0.2 -0.7 -2.4 -2.9 -2.9 -2.7 -4.4 -6.7 -7.7 -5.7 -5.0 -2.2 -1.9 -1.7 -1.4 -1.0 -0.7 -0.3
6.5 6.5 6.5 6.5 6.5 6.5 6.5 6.5 6.5 6.5 6.5 6.5 6.5 6.5 6.5 6.5 6.5 6.5 6.3 4.1 1.4 1.1 1.1 1.3 1.6 1.1 0.8 0.5 0.2 -0.3 -1.2 -2.7 -3.4 -4.4 -7.4 -6.9 -5.3 -3.6 -1.9 -1.3 -1.1 -0.8 -0.3 -0.3
6.5 6.5 6.5 6.5 6.5 6.5 6.5 6.5 6.5 6.5 6.5 6.5 6.5 6.5 6.5 6.5 6.5 6.4 6.3 6.0 3.5 0.5 -0.8 0.3 1.2 0.4 0.1 0.5 -0.9 -1.4 -2.1 -2.7 -3.1 -4.4 -5.9 -5.8 -6.0 -5.0 -2.7 -1.6 -0.9 -0.6 -0.7 0.0
6.5 6.5 6.5 6.5 6.5 6.5 6.5 6.5 6.5 6.5 6.5 6.5 6.5 6.5 6.5 6.5 6.4 6.2 5.8 3.6 2.1 2.5 0.9 -0.7 -0.9 0.2 0.8 0.7 -0.2 -0.8 -1.6 -2.0 -2.8 -3.9 -4.7 -6.4 -6.5 -7.6 -5.4 -3.1 -1.6 -1.2 -0.7 0.2
6.3 6.5 6.5 6.5 6.5 6.5 6.5 6.5 6.5 6.5 6.5 6.5 6.5 6.5 6.5 6.5 6.5 6.5 6.1 4.8 3.5 2.7 2.2 0.5 0.4 0.8 1.3 1.3 0.8 0.0 -0.3 -0.7 -1.5 -2.3 -4.2 -3.9 -4.5 -5.4 -5.3 -5.4 -2.8 -1.9 -0.8 -0.3
6.5 6.5 6.5 6.5 6.5 6.5 6.5 6.5 6.5 6.5 6.5 6.5 6.5 6.5 6.5 6.5 6.5 6.1 5.7 6.3 6.6 5.9 5.3 4.2 2.6 0.6 -0.0 0.4 0.6 0.3 -0.3 -0.8 -1.0 -1.5 -2.7 -3.8 -5.8 -7.7 -7.8 -6.9 -4.4 -3.0 -1.3 -0.3
6.5 6.5 6.5 6.5 6.5 6.5 6.5 6.5 6.5 6.5 6.5 6.5 6.5 6.5 6.5 6.2 6.1 6.4 6.7 7.0 6.8 6.9 6.5 6.3 5.3 4.4 3.1 1.7 1.7 0.8 -0.4 -1.5 -2.6 -2.1 -2.1 -2.7 -5.9 -8.2 -6.5 -5.9 -5.6 -5.0 -2.1 -1.8
6.5 6.5 6.5 6.5 6.5 6.5 6.5 6.5 6.5 6.5 6.5 6.5 6.5 6.5 6.5 6.5 6.5 6.5 6.2 5.3 5.8 6.6 6.4 6.1 5.8 4.8 4.3 2.6 2.3 -0.1 -0.6 -2.7 -2.7 -2.8 -3.4 -2.2 -3.6 -3.4 -5.0 -6.0 -7.5 -6.2 -3.4 -4.2
6.5 6.5 6.5 6.5 6.5 6.5 6.5 6.5 6.5 6.5 6.5 6.5 6.5 6.5 6.1 5.9 5.2 5.6 4.3 4.2 5.6 5.8 6.3 6.2 5.8 5.2 4.6 4.3 3.3 -1.5 -2.4 -2.4 -3.1 -3.6 -3.7 -4.8 -3.5 -2.9 -3.8 -5.6 -6.3 -6.5 -6.0 -4.2
6.3 6.5 6.5 6.5 6.5 6.5 6.5 6.5 6.5 6.5 6.5 6.5 6.5 6.5 6.4 6.0 4.7 3.7 6.1 5.0 6.0 5.9 5.8 5.7 5.8 5.7 5.1 4.4 3.9 2.8 -0.0 -2.0 -2.0 -2.7 -2.7 -2.8 -3.6 -3.4 -3.8 -3.3 -4.3 -5.5 -5.5 -4.5
6.5 6.5 6.5 6.5 6.5 6.5 6.5 6.5 6.2 6.4 6.5 6.5 6.5 6.3 6.4 6.6 6.5 6.5 6.0 6.0 5.8 5.7 6.2 6.1 5.8 5.9 5.2 4.8 4.0 3.3 2.3 0.5 -0.5 -0.3 -0.5 -2.0 -2.2 -2.6 -3.0 -2.5 -4.1 -4.3 -5.4 -3.9
6.5 6.5 6.5 6.5 6.5 6.5 6.5 6.2 5.7 6.5 6.5 5.5 5.7 6.1 6.0 6.5 6.6 7.0 6.5 6.0 6.4 6.3 6.0 5.9 5.7 5.8 5.5 5.2 4.1 3.8 2.9 1.9 2.0 2.0 0.9 0.5 -0.4 -1.5 -2.2 -3.7 -5.7 -4.2 -2.9 -1.5
6.5 6.5 6.5 6.5 6.5 6.5 5.7 5.4 6.5 5.7 3.8 6.4 6.4 6.9 6.8 7.2 7.5 7.6 6.9 6.5 6.6 6.1 5.9 6.0 5.2 5.1 5.4 5.4 3.8 3.4 3.0 3.1 2.8 2.7 2.6 2.2 1.2 1.8 1.1 -1.8 -4.3 -4.3 -3.0 -0.8
6.5 6.5 6.5 6.5 6.5 4.8 3.7 4.6 3.4 2.7 5.7 6.2 6.1 6.7 6.4 6.9 7.1 7.6 7.1 5.5 5.9 5.9 6.0 6.0 5.6 5.2 4.7 4.8 3.8 3.9 3.5 2.8 3.1 3.4 3.6 3.2 2.5 3.1 2.8 -0.5 -1.8 -1.3 -1.5 -0.5
6.5 4.7 6.5 6.5 6.3 5.4 2.2 1.0 3.3 4.9 4.0 4.2 3.7 5.4 6.6 7.0 6.8 7.1 6.6 5.7 5.7 6.2 6.2 6.5 6.2 5.8 5.2 4.9 4.6 3.6 3.4 3.6 3.3 3.6 3.4 3.2 2.8 2.7 2.7 4.9 2.6 -0.0 0.8 2.4
5.8 6.1 6.5 6.5 5.6 2.4 3.0 3.1 4.3 3.8 1.9 3.2 4.5 5.6 6.7 6.5 6.5 6.8 6.3 6.0 6.0 6.4 6.4 6.6 6.6 6.1 5.3 5.2 4.7 3.9 3.9 3.5 3.9 4.3 4.4 3.9 3.9 4.6 3.5 4.6 3.1 1.0 2.5 4.3
4.9 6.5 6.5 6.5 3.3 5.1 2.9 2.5 0.9 0.8 1.4 2.0 3.8 5.9 6.2 6.0 6.1 6.1 6.3 6.3 6.5 6.0 6.6 6.6 5.8 4.8 4.1 3.8 3.6 3.6 3.5 3.9 4.3 4.9 5.0 4.3 4.2 3.4 4.6 4.9 4.8 7.1 7.9 8.2
Wind_Speed
3 3 3 4 3 4 5 3 0 2 3 2 5 7 11 5 5 7 8 9 9 10 6 7 9 8 8 6 7 6 6 3 2 2 3 3 3 2 3 9 12 12 12 12
4 1 1 1 2 2 2 2 3 1 2 1 6 13 12 7 6 10 13 11 12 9 10 8 9 9 9 8 7 6 6 5 3 3 2 2 2 2 2 6 9 12 12 11
3 0 1 1 1 1 1 3 1 2 4 2 6 8 6 3 1 2 4 6 10 16 16 13 12 11 7 8 8 7 6 5 4 4 3 2 2 2 2 2 2 8 11 10
2 1 1 1 2 2 1 2 2 3 3 3 2 5 5 4 6 4 4 3 7 8 9 11 12 10 11 7 7 7 6 6 4 4 3 3 2 2 1 1 1 4 9 9
1 1 2 1 2 2 1 3 3 2 4 3 4 2 6 5 5 5 6 4 6 8 12 14 14 13 5 7 6 5 6 5 5 4 4 3 3 2 1 1 3 4 6 9
2 1 3 1 2 2 3 4 5 4 3 2 3 4 4 2 5 8 5 8 7 8 9 11 9 8 6 3 5 5 5 4 3 3 3 4 3 2 2 3 3 3 2 4
1 2 2 4 1 1 4 4 3 4 3 4 3 2 6 6 5 6 12 14 8 3 7 10 12 10 7 7 6 3 5 4 3 3 2 2 2 1 1 2 2 3 3 2
2 5 5 6 3 1 2 4 3 5 2 3 3 4 3 4 8 6 5 6 4 5 3 6 10 10 10 8 7 5 6 5 5 4 3 2 2 1 1 1 1 2 2 3
5 3 0 4 4 3 1 1 2 5 1 2 2 6 8 3 10 10 9 9 8 5 4 6 6 7 8 7 8 8 6 4 4 4 3 3 3 2 2 2 2 2 3 4
2 4 2 1 1 4 2 1 1 1 2 3 3 3 4 13 13 11 11 9 8 6 5 4 3 5 5 4 4 5 5 6 5 5 4 3 3 3 2 2 3 3 3 5
1 2 4 1 3 5 2 2 1 1 2 4 1 2 5 7 6 7 8 8 5 4 3 1 1 2 2 3 5 6 6 6 5 5 3 3 3 3 2 2 3 3 6 6
3 0 3 6 3 1 1 1 3 2 2 1 1 2 3 8 5 8 10 9 8 4 5 3 2 1 2 3 3 5 4 6 6 5 4 5 4 2 2 3 3 4 5 7
2 1 4 7 4 1 1 2 2 2 1 3 2 3 8 12 13 11 11 8 9 6 6 3 2 1 3 5 5 5 5 6 5 6 5 4 4 3 4 3 4 4 5 6
3 1 0 2 2 6 2 6 1 2 1 0 1 2 11 12 12 14 15 13 8 6 6 4 3 3 4 4 5 5 6 6 5 6 5 5 4 4 3 3 5 5 4 6
4 1 2 2 6 4 9 10 10 4 2 2 3 3 6 10 11 9 8 11 11 9 5 5 4 4 3 4 4 5 6 6 6 7 6 7 4 4 3 4 5 4 4 4
6 2 2 3 10 13 12 13 11 9 8 2 2 0 3 8 8 10 12 10 11 3 5 6 5 4 4 5 5 5 5 7 6 7 8 5 4 4 4 5 4 3 5 4
3 1 3 2 3 3 6 7 8 4 3 2 1 2 5 11 12 12 14 12 8 6 7 9 9 7 6 6 5 4 5 5 8 7 6 6 5 5 5 4 2 3 5 2
2 2 2 2 4 3 5 2 5 7 2 3 2 4 5 8 7 13 8 3 7 8 11 12 11 11 9 5 5 3 2 5 6 7 6 5 6 5 4 3 3 3 3 3
4 3 2 3 1 2 0 4 5 2 5 4 2 7 8 6 7 6 4 2 9 12 10 11 11 12 10 8 6 4 4 4 5 7 7 7 7 6 4 4 4 3 2 2
5 5 4 3 4 4 5 4 4 1 4 0 8 7 10 11 11 9 5 7 14 13 10 12 13 13 9 9 6 5 6 6 7 8 9 7 7 6 6 6 4 3 2 3
4 3 3 1 1 5 6 4 3 5 5 5 5 9 9 12 11 19 15 13 11 11 11 13 12 12 11 8 6 6 6 8 10 6 6 7 7 7 6 4 3 3 2 3
4 3 2 2 3 4 5 4 2 6 4 11 8 10 14 16 19 19 16 12 12 14 12 12 12 11 11 9 6 8 8 9 6 6 7 8 7 6 5 5 2 2 2 2
2 6 3 7 5 3 4 6 2 2 4 5 8 12 13 17 18 17 13 8 11 14 11 11 11 12 11 10 6 8 9 6 7 7 8 8 7 7 5 4 3 1 1 1
4 3 3 3 4 6 4 1 3 2 3 5 6 11 13 14 16 12 9 10 10 11 11 12 12 12 11 9 8 8 5 6 6 7 7 7 7 6 5 4 3 3 2 2
3 5 4 5 6 5 3 3 2 3 5 6 8 10 10 12 13 12 12 11 11 10 12 11 10 10 10 8 6 5 5 5 7 7 8 8 6 6 5 4 3 3 3 3
4 5 4 4 4 3 6 3 2 2 5 7 8 9 11 9 12 11 12 12 9 12 10 11 8 9 10 8 8 6 5 6 7 7 7 8 6 4 4 3 2 2 1 2
Wind_Direction
10 57 221 218 157 155 129 105 318 289 15 339 263 275 274 206 207 212 192 188 190 189 168 152 153 145 134 132 133 134 122 102 89 78 76 51 59 39 50 43 46 38 30 23
21 195 51 88 117 126 84 87 258 284 25 55 342 293 265 219 209 202 200 194 186 169 165 161 154 155 160 153 149 146 134 123 98 96 96 95 106 86 79 39 41 29 22 21
172 132 329 104 54 153 114 152 300 231 329 57 328 281 281 25 342 353 229 201 189 182 176 172 165 167 147 162 163 154 146 133 116 113 117 108 103 89 69 22 10 9 15 19
91 319 126 97 86 8 229 347 44 26 57 243 43 281 312 339 332 13 316 227 196 188 178 168 165 162 172 165 154 148 148 141 129 115 95 90 101 108 99 6 335 351 16 17
284 30 28 96 60 7 129 56 70 68 83 51 316 72 271 6 354 333 318 337 251 203 174 170 174 175 154 148 154 145 141 136 131 117 110 106 104 110 105 41 4 4 4 12
72 52 39 45 63 43 133 74 43 54 73 6 283 132 299 4 267 308 307 294 286 207 175 169 157 134 130 116 141 146 145 136 116 114 102 97 90 49 30 13 2 4 351 353
128 58 37 17 119 60 68 70 333 350 8 226 324 62 249 287 278 263 300 304 313 207 160 149 152 153 152 164 168 158 159 157 145 128 139 125 116 91 8 346 342 344 348 352
44 333 11 344 59 224 57 148 167 233 222 286 44 236 261 237 299 310 316 315 10 73 82 148 157 161 165 170 175 171 173 178 179 168 184 175 181 170 214 273 307 300 298 297
9 299 76 30 16 24 269 60 220 105 55 45 273 299 317 309 12 7 9 24 22 51 95 127 131 154 164 175 189 188 184 196 191 190 181 205 208 210 235 277 279 269 271 293
203 328 333 105 133 54 70 49 67 13 197 256 301 281 307 347 351 351 7 12 12 27 57 90 128 161 168 175 171 174 185 197 195 188 189 201 209 223 248 276 284 293 290 295
202 127 284 146 190 182 148 190 191 292 234 176 187 71 349 334 336 338 351 356 347 3 15 23 8 29 130 147 171 190 189 182 193 189 184 192 221 238 258 267 286 294 303 304
319 147 264 246 275 217 99 266 216 234 210 241 179 104 320 2 356 354 333 342 340 326 317 282 207 242 256 251 204 206 187 187 193 182 183 202 214 229 270 280 289 297 291 297
318 349 317 327 5 315 270 227 302 320 244 208 207 138 17 7 6 2 358 344 339 333 337 334 335 294 255 245 231 215 203 207 190 178 183 198 216 198 238 260 280 286 289 294
353 262 64 320 359 307 3 30 6 297 304 186 335 37 4 0 354 346 341 337 331 322 335 340 354 294 276 258 236 217 212 195 181 182 180 199 215 213 232 254 273 278 295 301
66 178 335 271 276 94 62 33 17 25 359 322 280 77 348 346 335 315 308 315 329 333 8 1 346 328 319 301 256 236 219 190 177 184 191 209 204 202 220 247 259 283 293 285
355 288 3 24 55 87 62 32 25 15 7 38 84 357 240 321 317 326 330 324 320 345 335 347 335 318 302 287 284 258 225 201 172 192 201 194 183 194 228 255 265 297 292 287
39 49 32 309 348 244 29 342 351 313 262 305 353 280 322 333 335 328 321 321 320 338 342 332 325 316 296 293 277 265 232 175 186 194 192 193 187 202 228 246 289 288 284 295
328 71 84 272 7 27 217 320 304 315 246 146 161 272 286 283 275 291 285 249 343 318 316 308 303 298 291 273 284 260 200 195 190 192 195 195 185 202 223 238 259 268 267 279
53 108 35 87 82 261 51 321 327 19 282 143 284 325 311 302 295 276 207 354 316 305 296 295 294 285 282 276 268 250 219 205 191 204 201 193 187 195 200 231 243 243 233 285
60 79 103 45 118 203 233 252 282 161 279 205 341 316 320 332 320 288 271 312 304 297 292 299 298 290 276 273 256 235 240 210 218 215 208 183 183 188 198 211 215 223 191 248
344 357 107 358 216 286 243 270 322 58 253 271 311 306 305 301 278 288 297 296 291 285 298 301 297 290 274 265 243 239 235 224 227 206 178 181 183 188 197 185 185 187 238 288
179 127 236 86 46 299 196 9 92 234 283 302 304 306 302 297 296 287 278 285 304 302 297 303 296 289 284 268 233 243 232 238 206 184 181 183 180 191 184 189 202 199 226 303
307 188 190 176 217 241 227 207 264 141 295 291 305 313 302 299 296 287 272 293 299 301 293 301 288 286 283 271 227 243 245 196 198 180 183 178 173 187 179 174 218 228 216 279
247 178 201 55 260 239 265 316 217 220 265 304 284 293 301 309 326 327 320 301 299 299 299 300 297 294 287 278 254 232 240 213 189 189 176 167 172 180 181 194 189 175 223 256
201 145 189 261 284 306 292 234 231 274 311 300 291 296 298 308 313 312 306 297 291 295 298 297 295 309 297 296 277 262 246 199 200 184 171 168 176 177 174 190 190 191 228 205
186 195 171 240 229 183 257 259 339 314 287 286 302 304 313 304 306 305 304 299 306 296 300 304 307 301 296 298 289 276 250 207 195 178 170 168 161 162 165 168 171 230 189 42